Retour au catalogue

SL-19 DEB

ActifUNKNOWN
NORAD 23495·DEBRIS·🇷🇺 Russia

Lancé Dec 26, 1994 depuis Baikonur Cosmodrome

Loading…

Prochains Passages (prochaines 24 heures)

TLE

FraisSource: Space-Track

Époque: Sep 13, 2026, 18:08 UTC

1 23495U 94085T   26256.75586876 -.00000001  00000-0  11159-2 0  9993
2 23495  65.0239 168.6743 0175954  28.3298   0.8536 11.31090967309818

Suivez SL-19 DEB en temps réel avec AllMySat

Download on the App Store